Waterville, ME

8:44 PM EDT on May 25, 2017 (GMT -0400)
Waterville Lafleur

Weather History for KWVL - November, 2012

Change the Weather History Date:

Friday, November 9, 2012

  Actual Average Record
Temperature  
Mean Temperature 40 °F -  
Max Temperature 48 °F 49 °F 68 °F (1975)
Min Temperature 33 °F 30 °F 15 °F (1980)
Degree Days  
Heating Degree Days 24    
Moisture  
Dew Point 29 °F    
Average Humidity 68    
Maximum Humidity 100    
Minimum Humidity 46    
Precipitation  
Precipitation 0.00 in - - ()
Sea Level Pressure  
Sea Level Pressure 29.84 in    
Wind  
Wind Speed 14 mph (NW)    
Max Wind Speed 20 mph    
Max Gust Speed 26 mph    
Visibility 10 miles    
Events      
Averages and records for this station are not official NWS values.
T = Trace of Precipitation, MM = Missing Value Source: NWS Daily Summary

Daily Weather History Graph

Daily Weather History Graph

Search for Another Location

Airport or City:

Trip Planner

Search our weather history database for the weather conditions in past years. The results will help you decide how hot, cold, wet, or windy it might be!

Date:

Astronomy

Nov. 09, 2012 Rise Set
Actual Time 6:27 AM EST 4:16 PM EST
Civil Twilight 5:56 AM EST 4:47 PM EST
Nautical Twilight 5:21 AM EST 5:22 PM EST
Astronomical Twilight 4:47 AM EST 5:57 PM EST
Moon 1:11 AM EST (11/9) 1:38 PM EST (11/9)
Length of Visible Light 10h 51m
Length of Day
9h 49m
Waning Crescent, 23% of the Moon is Illuminated
Nov 9
Waning Crescent
Nov 13
New
Nov 20
First Quarter
Nov 28
Full
Dec 6
Last Quarter

Hourly Weather History & Observations

Time (EST) Temp. Windchill Dew Point Humidity Pressure Visibility Wind Dir Wind Speed Gust Speed Precip Events Conditions
12:15 AM 33.8 °F 23.9 °F 33.8 °F 100% 29.71 in 10.0 mi NNW 15.0 mph 20.7 mph N/A   Overcast
12:35 AM 33.8 °F 23.2 °F 32.0 °F 93% 29.71 in 10.0 mi NNW 17.3 mph 25.3 mph N/A   Overcast
12:55 AM 33.8 °F 23.2 °F 32.0 °F 93% 29.71 in 10.0 mi NNW 17.3 mph 23.0 mph N/A   Overcast
1:15 AM 33.8 °F 22.5 °F 33.8 °F 100% 29.71 in 10.0 mi NNW 19.6 mph 24.2 mph N/A   Overcast
1:35 AM 33.8 °F 23.9 °F 32.0 °F 93% 29.72 in 10.0 mi NNW 15.0 mph 21.9 mph N/A   Overcast
1:55 AM 33.8 °F 22.8 °F 33.8 °F 100% 29.72 in 10.0 mi NNW 18.4 mph - N/A   Overcast
2:15 AM 35.6 °F 26.6 °F 32.0 °F 87% 29.72 in 10.0 mi NNW 13.8 mph 24.2 mph N/A   Overcast
2:35 AM 35.6 °F 26.2 °F 32.0 °F 87% 29.72 in 10.0 mi NNW 15.0 mph 20.7 mph N/A   Overcast
2:55 AM 35.6 °F 26.2 °F 32.0 °F 87% 29.72 in 10.0 mi NNW 15.0 mph 21.9 mph N/A   Overcast
3:15 AM 35.6 °F 26.2 °F 32.0 °F 87% 29.72 in 10.0 mi NNW 15.0 mph 23.0 mph N/A   Overcast
3:35 AM 35.6 °F 25.9 °F 32.0 °F 87% 29.72 in 10.0 mi NNW 16.1 mph - N/A   Overcast
3:55 AM 35.6 °F 26.2 °F 30.2 °F 81% 29.73 in 10.0 mi NNW 15.0 mph 23.0 mph N/A   Overcast
4:15 AM 35.6 °F 25.2 °F 30.2 °F 81% 29.73 in 10.0 mi NNW 18.4 mph 24.2 mph N/A   Overcast
4:35 AM 35.6 °F 25.5 °F 30.2 °F 81% 29.73 in 10.0 mi NNW 17.3 mph - N/A   Overcast
4:55 AM 35.6 °F 24.8 °F 30.2 °F 81% 29.74 in 10.0 mi NNW 19.6 mph 26.5 mph N/A   Overcast
5:15 AM 35.6 °F 25.2 °F 30.2 °F 81% 29.74 in 10.0 mi NNW 18.4 mph 26.5 mph N/A   Overcast
5:35 AM 35.6 °F 25.5 °F 30.2 °F 81% 29.75 in 10.0 mi NNW 17.3 mph 24.2 mph N/A   Overcast
5:55 AM 35.6 °F 26.2 °F 30.2 °F 81% 29.76 in 10.0 mi NNW 15.0 mph 23.0 mph N/A   Overcast
6:15 AM 35.6 °F 27.1 °F 30.2 °F 81% 29.77 in 10.0 mi North 12.7 mph 21.9 mph N/A   Overcast
6:35 AM 35.6 °F 26.6 °F 30.2 °F 81% 29.77 in 10.0 mi NNW 13.8 mph 19.6 mph N/A   Overcast
7:15 AM 35.6 °F 26.6 °F 30.2 °F 81% 29.79 in 10.0 mi NNW 13.8 mph - N/A   Overcast
7:35 AM 35.6 °F 26.6 °F 30.2 °F 81% 29.81 in 10.0 mi NNW 13.8 mph 25.3 mph N/A   Mostly Cloudy
7:55 AM 37.4 °F 27.5 °F 30.2 °F 75% 29.80 in 10.0 mi NNW 18.4 mph 26.5 mph N/A   Mostly Cloudy
8:15 AM 37.4 °F 27.8 °F 30.2 °F 75% 29.81 in 10.0 mi NNW 17.3 mph 25.3 mph N/A   Overcast
8:35 AM 37.4 °F 30.3 °F 30.2 °F 75% 29.81 in 10.0 mi NNW 10.4 mph 24.2 mph N/A   Overcast
8:55 AM 37.4 °F 28.9 °F 30.2 °F 75% 29.81 in 10.0 mi NNW 13.8 mph 18.4 mph N/A   Scattered Clouds
9:15 AM 39.2 °F 31.2 °F 30.2 °F 70% 29.81 in 10.0 mi NNW 13.8 mph 20.7 mph N/A   Clear
9:56 AM 42.8 °F 35.4 °F 30.2 °F 61% 29.83 in 10.0 mi NNW 15.0 mph 21.9 mph N/A   Partly Cloudy
10:15 AM 42.8 °F 34.3 °F 30.2 °F 61% 29.84 in 10.0 mi NNW 19.6 mph 26.5 mph N/A   Mostly Cloudy
10:35 AM 42.8 °F 35.4 °F 30.2 °F 61% 29.83 in 10.0 mi North 15.0 mph 24.2 mph N/A   Mostly Cloudy
10:55 AM 42.8 °F 35.8 °F 30.2 °F 61% 29.83 in 10.0 mi North 13.8 mph 26.5 mph N/A   Partly Cloudy
11:15 AM 44.6 °F 36.9 °F 30.2 °F 57% 29.81 in 10.0 mi North 18.4 mph 24.2 mph N/A   Clear
11:36 AM 44.6 °F 36.9 °F 30.2 °F 57% 29.81 in 10.0 mi North 18.4 mph - N/A   Clear
11:55 AM 44.6 °F 38.4 °F 30.2 °F 57% 29.82 in 10.0 mi North 12.7 mph - N/A   Partly Cloudy
12:15 PM 44.6 °F 38.8 °F 30.2 °F 57% 29.82 in 10.0 mi North 11.5 mph 18.4 mph N/A   Clear
12:35 PM 44.6 °F 40.2 °F 30.2 °F 57% 29.81 in 10.0 mi North 8.1 mph 19.6 mph N/A   Clear
12:55 PM 46.4 °F 41.1 °F 30.2 °F 53% 29.81 in 10.0 mi NNW 11.5 mph - N/A   Clear
1:15 PM 46.4 °F 41.1 °F 30.2 °F 53% 29.81 in 10.0 mi NNW 11.5 mph - N/A   Clear
1:35 PM 48.2 °F - 30.2 °F 50% 29.81 in 10.0 mi NNW 11.5 mph - N/A   Clear
1:55 PM 48.2 °F - 30.2 °F 50% 29.82 in 10.0 mi NW 8.1 mph - N/A   Clear
2:15 PM 48.2 °F - 30.2 °F 50% 29.82 in 10.0 mi WNW 13.8 mph 18.4 mph N/A   Clear
2:35 PM 48.2 °F - 28.4 °F 46% 29.82 in 10.0 mi NNW 4.6 mph - N/A   Clear
2:55 PM 48.2 °F - 28.4 °F 46% 29.83 in 10.0 mi NW 9.2 mph - N/A   Clear
3:15 PM 48.2 °F - 28.4 °F 46% 29.84 in 10.0 mi NW 9.2 mph - N/A   Clear
3:35 PM 46.4 °F 43.5 °F 28.4 °F 50% 29.85 in 10.0 mi WNW 5.8 mph - N/A   Clear
3:56 PM 46.4 °F 42.4 °F 28.4 °F 50% 29.85 in 10.0 mi NW 8.1 mph - N/A   Clear
4:15 PM 44.6 °F 39.7 °F 26.6 °F 49% 29.86 in 10.0 mi WNW 9.2 mph - N/A   Clear
4:35 PM 44.6 °F 40.2 °F 24.8 °F 46% 29.88 in 10.0 mi WNW 8.1 mph - N/A   Clear
4:55 PM 42.8 °F 37.5 °F 23.0 °F 46% 29.89 in 10.0 mi West 9.2 mph 17.3 mph N/A   Clear
5:15 PM 42.8 °F 35.4 °F 23.0 °F 46% 29.90 in 10.0 mi WNW 15.0 mph - N/A   Clear
5:35 PM 42.8 °F 34.3 °F 24.8 °F 49% 29.90 in 10.0 mi WNW 19.6 mph 26.5 mph N/A   Clear
5:55 PM 41.0 °F 35.2 °F 24.8 °F 53% 29.92 in 10.0 mi WNW 9.2 mph 16.1 mph N/A   Clear
6:15 PM 39.2 °F 33.6 °F 24.8 °F 56% 29.92 in 10.0 mi WNW 8.1 mph - N/A   Clear
6:35 PM 39.2 °F 34.2 °F 24.8 °F 56% 29.93 in 10.0 mi WNW 6.9 mph - N/A   Clear
6:55 PM 39.2 °F 33.0 °F 24.8 °F 56% 29.93 in 10.0 mi WNW 9.2 mph - N/A   Clear
7:15 PM 39.2 °F 37.0 °F 24.8 °F 56% 29.94 in 10.0 mi West 3.5 mph - N/A   Clear
7:35 PM 37.4 °F 34.9 °F 26.6 °F 65% 29.95 in 10.0 mi West 3.5 mph - N/A   Clear
7:55 PM 37.4 °F 33.8 °F 24.8 °F 60% 29.95 in 10.0 mi WNW 4.6 mph - N/A   Clear
8:15 PM 37.4 °F - 26.6 °F 65% 29.95 in 10.0 mi Calm Calm - N/A   Clear
8:35 PM 37.4 °F 34.9 °F 26.6 °F 65% 29.96 in 10.0 mi WSW 3.5 mph - N/A   Clear
8:55 PM 35.6 °F 32.8 °F 26.6 °F 70% 29.96 in 10.0 mi West 3.5 mph - N/A   Clear
9:16 PM 33.8 °F - 26.6 °F 75% 29.96 in 10.0 mi Calm Calm - N/A   Clear
9:35 PM - - - N/A% 29.96 in 10.0 mi West 4.6 mph - N/A   Clear
9:55 PM 37.4 °F 31.4 °F 28.4 °F 70% 29.96 in 10.0 mi WNW 8.1 mph - N/A   Clear
10:15 PM 39.2 °F 34.2 °F 28.4 °F 65% 29.97 in 10.0 mi West 6.9 mph - N/A   Clear
10:35 PM 39.2 °F 34.2 °F 28.4 °F 65% 29.98 in 10.0 mi WNW 6.9 mph - N/A   Clear
10:55 PM 39.2 °F 32.5 °F 30.2 °F 70% 29.99 in 10.0 mi West 10.4 mph - N/A   Clear
11:15 PM 39.2 °F 34.2 °F 28.4 °F 65% 29.97 in 10.0 mi West 6.9 mph - N/A   Clear
11:35 PM 39.2 °F 33.6 °F 28.4 °F 65% 29.98 in 10.0 mi West 8.1 mph - N/A   Clear
11:55 PM 37.4 °F 33.8 °F 28.4 °F 70% 29.97 in 10.0 mi SSW 4.6 mph - N/A   Clear